[[{"header":{"parameterUnit":"m.s-1","parameterCategory":1,"la1":30.2991,"la2":30.254,"lo1":-89.0895,"lo2":-89.0444,"dy":0.0017,"dx":0.0017,"nx":28,"ny":28,"refTime":"2024-10-03T03:00:00:Z","depth":0,"parameterNumber":2,"parameterNumberName":"U-component_of_WINDS"},"data":[0,0,0,0,0,0,0,0,0,0,0,0,0,0,0,0,0,0,0,0,0,0,0,0,0,0,0,0,0,0,0,0,0,0,0,0,0,0,0,0,0,0,0,0,0,0,0,0,0,0,0,0,0,0,0,0,0,0,-3.9489,-3.9489,0,-3.949,-3.949,-3.949,-3.9365,-3.9362,-3.9359,-3.9356,-3.9356,-3.9359,-3.9362,0,0,0,0,0,0,0,0,0,0,0,0,0,-3.9381,-3.9383,-3.9489,-3.9489,-3.9489,-3.949,-3.949,-3.949,-3.9366,-3.9362,-3.9358,-3.9354,-3.9355,-3.9358,-3.9362,0,0,0,0,0,0,0,0,0,0,0,0,0,-3.9409,-3.9384,-3.9489,-3.9428,-3.9422,-3.949,-3.949,-3.949,-3.9367,-3.9362,-3.9357,-3.9352,-3.9354,-3.9358,-3.9363,-3.9489,0,0,-3.9377,-3.9379,0,0,0,0,0,0,0,0,-3.9408,-3.9413,-3.9437,-3.9432,-3.9426,-3.9422,-3.9451,-3.949,-3.9368,-3.9388,-3.9356,-3.935,-3.9382,-3.9384,-3.9395,-3.9489,-3.9489,-3.9377,-3.938,-3.9382,-3.9383,0,0,0,0,0,0,0,-3.9406,-3.9413,-3.9489,-3.9437,-3.9431,-3.94,-3.9398,-3.9458,-3.9412,-3.9386,-3.9377,-3.9378,-3.9378,-3.9391,-3.9394,-3.9489,-3.9377,-3.9381,-3.9384,-3.9386,-3.9689,-3.9694,0,0,0,0,0,0,-3.9413,-3.9412,-3.9489,-3.9489,-3.9405,-3.9406,-3.9404,-3.9429,-3.9411,-3.9404,-3.9383,-3.9373,-3.9385,-3.9389,-3.9393,-3.9542,-3.9382,-3.9386,-3.9389,-3.9684,-3.969,-3.9696,0,0,0,0,0,0,-3.9411,-3.9421,-3.9489,-3.9448,-3.9455,-3.9413,-3.9441,-3.9431,-3.9444,-3.9409,-3.94,-3.9404,-3.9381,-3.9387,-3.9467,-3.954,-3.9388,-3.9392,-3.9678,-3.9686,-3.9693,-3.984,0,0,0,0,0,0,-3.9408,-3.9421,-3.9469,-3.945,-3.9457,-3.9564,-3.9446,-3.9435,-3.9452,-3.9439,-3.9427,-3.942,-3.9378,-3.9461,-3.9471,-3.9544,-3.9396,-3.9671,-3.9681,-3.9691,-3.9828,-3.9852,-3.9872,0,0,0,0,0,-3.9405,-3.9509,-3.9472,-3.9482,-3.9516,-3.9568,-3.9572,-3.9522,-3.9458,-3.9506,-3.9484,-3.942,-3.953,-3.947,-3.9481,-3.9556,-3.9666,-3.9678,-3.969,-3.9819,-3.9847,-3.9872,0,0,0,0,0,0,-3.9537,-3.9506,-3.9464,-3.9566,-3.9571,-3.9547,-3.9606,-3.9553,-3.9576,-3.9563,-3.9499,-3.9497,-3.9588,-3.9579,-3.9513,-3.9678,-3.9587,-3.9602,-3.9681,-3.9708,-3.9729,-3.973,-3.94,0,0,0,0,0,-3.9578,-3.9623,-3.9593,-3.9686,-3.969,-3.9648,-3.9669,-3.9629,-3.9632,-3.9633,-3.9616,-3.9621,-3.9656,-3.9681,-3.9712,-3.9826,-3.9822,-3.9883,-3.9905,-3.9923,-3.9937,-3.9998,-4.0025,-3.9735,-3.9735,-3.9735,0,0,-3.9664,-3.9652,-3.9684,-3.9712,-3.9711,-3.9759,-3.9651,-3.9705,-3.9741,-3.9641,-3.9716,-3.9705,-3.9705,-3.9803,-3.9846,-3.9799,-4.0016,-3.9938,-3.9953,-3.9957,-4.0013,-4.0041,-4.0065,-3.9744,-3.9742,-3.9741,0,0,-3.9844,-3.9839,-3.9917,-3.9919,-3.9919,-3.989,-3.9909,-3.9893,-3.9882,-3.9956,-3.9883,-3.9923,-3.9985,-3.9989,-4.0,-4.0183,-4.0126,-4.0194,-4.0309,-4.037,-4.0393,-4.0412,-4.0479,-4.0504,-4.0208,-4.0208,-4.0209,0,-3.995,-4.002,-3.9963,-4.0024,-4.0039,-3.9951,-4.003,-4.0034,-4.0044,-4.0057,-4.0004,-4.0081,-4.0075,-4.0174,-4.0219,-4.0229,-4.025,-4.0196,-4.0394,-4.0413,-4.0431,-4.0494,-4.0519,-4.0217,-4.0216,-4.0215,-4.0214,0,-4.0151,-4.0201,-4.0263,-4.0277,-4.0298,-4.0368,-4.0322,-4.035,-4.0309,-4.0286,-4.0364,-4.0353,-4.0381,-4.0401,-4.0361,-4.0495,-4.0466,-4.0405,-4.0312,-4.0468,-4.0527,-4.055,-4.0229,-4.0226,-4.0223,-4.0221,0,0,-4.0416,-4.0398,-4.0422,-4.0427,-4.0421,-4.0458,-4.0524,-4.0551,-4.0578,-4.0588,-4.0642,-4.0696,-4.064,-4.0652,-4.0611,-4.0664,-4.0812,-4.0596,-4.0595,-4.0638,-4.096,-4.1008,-4.1037,-4.0773,-4.0777,-4.0781,-4.0961,0,-4.0593,-4.0704,-4.0656,-4.0772,-4.0818,-4.0735,-4.0792,-4.0795,-4.0775,-4.0811,-4.0788,-4.0829,-4.075,-4.0757,-4.0805,-4.0784,-4.0876,-4.077,-4.0824,-4.0827,-4.0829,-4.1067,-4.1118,-4.1288,-4.0983,-4.0987,-4.099,0,-4.0814,-4.0834,-4.0956,-4.0943,-4.096,-4.1012,-4.1034,-4.1069,-4.107,-4.1052,-4.1066,-4.1014,-4.1077,-4.0984,-4.1071,-4.1,-4.1019,-4.1012,-4.1017,-4.1022,-4.0919,-4.108,-4.1341,-4.1367,-4.1025,-4.1022,-4.1019,0,-4.0998,-4.1055,-4.1135,-4.1142,-4.1128,-4.1168,-4.1163,-4.116,-4.118,-4.1199,-4.1211,-4.1237,-4.1252,-4.1273,-4.123,-4.1165,-4.1324,-4.1226,-4.1311,-4.1313,-4.135,-4.1348,-4.1619,-4.1359,-4.1359,-4.1358,-4.1358,0,-4.1201,-4.128,-4.1218,-4.1268,-4.1353,-4.1296,-4.1382,-4.1368,-4.1366,-4.1412,-4.1341,-4.1386,-4.1324,-4.1363,-4.1329,-4.1407,-4.1414,-4.1401,-4.1392,-4.1409,-4.1411,-4.1422,-4.141,-4.1365,-4.1363,-4.1362,-4.1361,0,-4.1422,-4.1384,-4.1466,-4.1447,-4.1443,-4.1507,-4.149,-4.1536,-4.151,-4.157,-4.158,-4.1541,-4.1583,-4.1541,-4.158,-4.1557,-4.1663,-4.1635,-4.1663,-4.1656,-4.1744,-4.1737,-4.2033,-4.207,-4.1785,-4.1787,-4.179,0,-4.1556,-4.1614,-4.1601,-4.1627,-4.1627,-4.167,-4.169,-4.1636,-4.166,-4.1666,-4.1711,-4.1747,-4.1773,-4.1844,-4.1819,-4.1849,-4.1822,-4.1924,-4.1826,-4.1842,-4.1826,-4.1824,-4.183,-4.1944,-4.1948,-4.195,-4.1953,0,-4.1797,-4.1776,-4.1808,-4.1834,-4.1861,-4.1879,-4.1891,-4.1916,-4.186,-4.1891,-4.1933,-4.1953,-4.1993,-4.2031,-4.2053,-4.2048,-4.1993,-4.1983,-4.2005,-4.2024,-4.2039,-4.2034,-4.1719,-4.1977,-4.1975,-4.1973,-4.1972,-4.1971,-4.1979,-4.2028,-4.2027,-4.2065,-4.2069,-4.2083,-4.2125,-4.2105,-4.2139,-4.2169,-4.2134,-4.2186,-4.2186,-4.2211,-4.2213,-4.2253,-4.221,-4.2241,-4.2249,-4.2258,-4.2272,-4.2031,-4.2257,-4.2256,-4.2255,-4.2255,-4.2254,0,-4.2219,-4.2214,-4.225,-4.2271,-4.2301,-4.2245,-4.2256,-4.2285,-4.2333,-4.2337,-4.2365,-4.2414,-4.245,-4.2428,-4.2458,-4.2495,-4.247,-4.2505,-4.2503,-4.2503,-4.2308,-4.2287,-4.2525,-4.2525,-4.2525,-4.2524,-4.2524,-4.2524,-4.2348,-4.2428,-4.2406,-4.2487,-4.2481,-4.2533,-4.2544,-4.2556,-4.256,-4.2618,-4.2648,-4.2633,-4.2627,-4.2657,-4.2687,-4.268,-4.2695,-4.274,-4.2724,-4.2543,-4.2516,-4.2491,-4.2471,-4.2744,-4.2744,-4.2916,-4.2917,-4.2918]},{"header":{"parameterUnit":"m.s-1","parameterCategory":1,"la1":30.2991,"la2":30.254,"lo1":-89.0895,"lo2":-89.0444,"dy":0.0017,"dx":0.0017,"nx":28,"ny":28,"refTime":"2024-10-03T03:00:00:Z","depth":0,"parameterNumber":3,"parameterNumberName":"V-component_of_WINDS"},"data":[0,0,0,0,0,0,0,0,0,0,0,0,0,0,0,0,0,0,0,0,0,0,0,0,0,0,0,0,0,0,0,0,0,0,0,0,0,0,0,0,0,0,0,0,0,0,0,0,0,0,0,0,0,0,0,0,0,0,-3.0064,-3.0064,0,-3.0017,-3.0016,-3.0016,-2.9959,-2.9958,-2.9957,-2.9956,-2.9908,-2.9908,-2.9907,0,0,0,0,0,0,0,0,0,0,0,0,0,-3.0105,-3.0104,-3.0064,-3.0063,-3.0063,-3.0017,-3.0016,-3.0015,-2.9959,-2.9958,-2.9957,-2.9956,-2.9908,-2.9908,-2.9907,0,0,0,0,0,0,0,0,0,0,0,0,0,-3.0075,-3.0104,-3.0064,-3.0029,-3.0025,-3.0017,-3.0016,-3.0015,-2.9959,-2.9958,-2.9956,-2.9955,-2.9908,-2.9908,-2.9907,-2.9929,0,0,-2.9905,-2.9905,0,0,0,0,0,0,0,0,-3.0077,-3.0074,-3.0035,-3.0031,-3.0027,-2.9992,-3.0013,-2.9986,-2.9959,-2.9984,-2.9956,-2.9955,-2.9937,-2.9934,-2.9928,-2.9927,-2.9925,-2.9905,-2.9904,-2.9904,-2.9904,0,0,0,0,0,0,0,-3.0079,-3.0076,-3.0045,-3.0034,-3.003,-3.0015,-3.001,-3.0008,-2.9969,-2.9982,-2.9978,-2.9973,-2.9935,-2.9929,-2.9926,-2.9924,-2.9905,-2.9904,-2.9904,-2.9904,-2.9937,-2.9938,0,0,0,0,0,0,-3.0086,-3.0078,-3.0047,-3.0044,-3.0049,-3.0016,-3.0009,-3.0005,-2.9969,-2.9962,-2.9974,-2.997,-2.9931,-2.9927,-2.9925,-2.9947,-2.9904,-2.9903,-2.9903,-2.9936,-2.9937,-2.9939,0,0,0,0,0,0,-3.0088,-3.0084,-3.0049,-3.006,-3.0054,-3.0016,-3.0012,-3.0005,-2.9998,-2.9963,-2.9955,-2.9975,-2.9929,-2.9926,-2.9928,-2.9944,-2.9903,-2.9903,-2.9934,-2.9936,-2.9938,-2.9993,0,0,0,0,0,0,-3.0089,-3.0085,-3.0093,-3.006,-3.0054,-3.0053,-3.0013,-3.0005,-2.9997,-2.9992,-2.9962,-2.9955,-2.9928,-2.9929,-2.9927,-2.9943,-2.9902,-2.9933,-2.9935,-2.9937,-2.9989,-2.9996,-3.0002,0,0,0,0,0,-3.0091,-3.0111,-3.0094,-3.0091,-3.0063,-3.0055,-3.0051,-3.0019,-2.9999,-3.0007,-2.9983,-2.9956,-2.9943,-2.993,-2.9927,-2.9943,-2.9931,-2.9934,-2.9937,-2.9986,-2.9995,-3.0002,0,0,0,0,0,0,-3.0148,-3.0106,-3.0087,-3.0097,-3.008,-3.0045,-3.0054,-3.0029,-3.0017,-3.0013,-2.9974,-2.9968,-2.9974,-2.9959,-2.9945,-2.9961,-2.9933,-2.9936,-2.9971,-2.9979,-2.9986,-2.9989,-2.9901,0,0,0,0,0,-3.0161,-3.0158,-3.0122,-3.0134,-3.0126,-3.0092,-3.0087,-3.0064,-3.0044,-3.0037,-3.0013,-2.9996,-2.9987,-2.9982,-2.9973,-2.9987,-2.9978,-2.9996,-3.0002,-3.0008,-3.001,-3.0015,-3.0022,-2.9948,-2.9948,-2.9948,0,0,-3.019,-3.0167,-3.0167,-3.0145,-3.0129,-3.0126,-3.0086,-3.0085,-3.0082,-3.0036,-3.0037,-3.0019,-2.9997,-3.0005,-3.0007,-2.9992,-3.0029,-3.0012,-3.0016,-3.0016,-3.0019,-3.0026,-3.0032,-2.995,-2.995,-2.995,0,0,-3.0239,-3.0222,-3.023,-3.0214,-3.019,-3.0167,-3.0169,-3.0137,-3.0123,-3.0123,-3.0089,-3.0085,-3.0071,-3.0056,-3.0047,-3.0089,-3.0063,-3.0087,-3.0121,-3.0126,-3.0132,-3.0137,-3.015,-3.0156,-3.009,-3.009,-3.009,0,-3.0278,-3.0272,-3.0237,-3.0237,-3.0228,-3.0187,-3.0194,-3.018,-3.0155,-3.0149,-3.0132,-3.0114,-3.0096,-3.0098,-3.0109,-3.0103,-3.0103,-3.009,-3.0134,-3.0138,-3.0142,-3.0155,-3.0161,-3.0093,-3.0093,-3.0092,-3.0092,0,-3.0319,-3.0315,-3.0325,-3.03,-3.0292,-3.0296,-3.0261,-3.0257,-3.0235,-3.0213,-3.0213,-3.0189,-3.0173,-3.0173,-3.0151,-3.0172,-3.0163,-3.0141,-3.0111,-3.0153,-3.0164,-3.0169,-3.0097,-3.0096,-3.0095,-3.0095,0,0,-3.0404,-3.0359,-3.0363,-3.0351,-3.032,-3.0316,-3.0318,-3.0302,-3.0299,-3.0282,-3.0282,-3.0271,-3.0249,-3.0239,-3.0215,-3.0219,-3.0252,-3.0196,-3.0194,-3.0206,-3.0273,-3.0289,-3.0295,-3.0235,-3.0236,-3.0237,-3.0274,0,-3.0447,-3.0447,-3.0416,-3.0424,-3.0419,-3.0379,-3.038,-3.0362,-3.0341,-3.0334,-3.0311,-3.0303,-3.0276,-3.0269,-3.0272,-3.0248,-3.0265,-3.0245,-3.0233,-3.0234,-3.024,-3.0301,-3.0319,-3.0355,-3.0278,-3.0279,-3.028,0,-3.0498,-3.0483,-3.0491,-3.0459,-3.0456,-3.0458,-3.044,-3.0434,-3.0411,-3.0396,-3.0383,-3.0356,-3.0354,-3.0327,-3.0323,-3.031,-3.0303,-3.0291,-3.0291,-3.0288,-3.0259,-3.0299,-3.0366,-3.0371,-3.0286,-3.0286,-3.0285,0,-3.0557,-3.054,-3.0542,-3.0533,-3.0496,-3.0497,-3.0482,-3.0458,-3.045,-3.0435,-3.0429,-3.0413,-3.0405,-3.0393,-3.0362,-3.0345,-3.0361,-3.0332,-3.0348,-3.0348,-3.0352,-3.0352,-3.0419,-3.035,-3.035,-3.035,-3.035,0,-3.0608,-3.0615,-3.0568,-3.0569,-3.0574,-3.0538,-3.0544,-3.0525,-3.0503,-3.05,-3.0464,-3.0462,-3.0421,-3.0413,-3.0388,-3.0388,-3.0385,-3.0372,-3.0365,-3.0374,-3.0376,-3.0369,-3.0365,-3.0351,-3.0351,-3.0351,-3.0351,0,-3.0675,-3.0644,-3.0644,-3.0608,-3.06,-3.0605,-3.0575,-3.0574,-3.0551,-3.0546,-3.0543,-3.0507,-3.0496,-3.0463,-3.0444,-3.0428,-3.0434,-3.0422,-3.0442,-3.0437,-3.0454,-3.0453,-3.0518,-3.0524,-3.0453,-3.0454,-3.0454,0,-3.071,-3.0713,-3.0678,-3.0673,-3.0659,-3.0651,-3.0643,-3.0607,-3.0599,-3.0573,-3.0575,-3.0561,-3.0548,-3.0532,-3.0503,-3.0488,-3.0475,-3.0498,-3.0472,-3.0481,-3.0473,-3.0473,-3.0473,-3.0504,-3.0505,-3.0506,-3.0506,0,-3.0773,-3.0757,-3.0746,-3.073,-3.072,-3.0705,-3.0689,-3.0686,-3.0646,-3.0639,-3.0627,-3.0617,-3.0596,-3.0583,-3.0563,-3.0546,-3.0519,-3.0515,-3.0517,-3.0527,-3.0537,-3.053,-3.0456,-3.0513,-3.0513,-3.0512,-3.0512,-3.0512,-3.0824,-3.0824,-3.08,-3.0788,-3.0771,-3.0756,-3.0753,-3.073,-3.0719,-3.07,-3.0679,-3.0669,-3.0645,-3.0615,-3.06,-3.0591,-3.0577,-3.0582,-3.0582,-3.0584,-3.0587,-3.0539,-3.0588,-3.0588,-3.0587,-3.0587,-3.0587,0,-3.0884,-3.0866,-3.0856,-3.0833,-3.0824,-3.0799,-3.0779,-3.0773,-3.0764,-3.0744,-3.0732,-3.0717,-3.0703,-3.0673,-3.0656,-3.0655,-3.0642,-3.0651,-3.065,-3.0647,-3.0602,-3.06,-3.0662,-3.0662,-3.0662,-3.0662,-3.0662,-3.0662,-3.0915,-3.0914,-3.0895,-3.0886,-3.0867,-3.0857,-3.0847,-3.0833,-3.0816,-3.0801,-3.079,-3.077,-3.0746,-3.0726,-3.0712,-3.0703,-3.0698,-3.0712,-3.0699,-3.0657,-3.065,-3.0643,-3.0642,-3.0711,-3.0711,-3.0745,-3.0745,-3.0745]}]]